Weather History for Bartlesville, OK

Change the Weather History Date:

Friday, December 6, 2013

  Actual Average Record
Temperature  
Mean Temperature 18 °F -  
Max Temperature 25 °F 52 °F 74 °F (1966)
Min Temperature 12 °F 30 °F 1 °F (1950)
Degree Days  
Heating Degree Days 46    
Moisture  
Dew Point 10 °F    
Average Humidity 69    
Maximum Humidity 93    
Minimum Humidity 46    
Precipitation  
Precipitation 0.00 in - - ()
Sea Level Pressure  
Sea Level Pressure 30.46 in    
Wind  
Wind Speed 11 mph (North)    
Max Wind Speed 16 mph    
Max Gust Speed 23 mph    
Visibility 6 miles    
Events Fog , Snow    
Averages and records for this station are not official NWS values.
T = Trace of Precipitation, MM = Missing Value Source: NWS Daily Summary

Daily Weather History Graph

Daily Weather History Graph

Search for Another Location

Airport:

Trip Planner

Search our weather history database for the weather conditions in past years. The results will help you decide how hot, cold, wet, or windy it might be!

Date:

Astronomy

Dec. 06, 2013 Rise Set
Actual Time 7:22 AM CST 5:07 PM CST
Civil Twilight 6:54 AM CST 5:36 PM CST
Nautical Twilight 6:21 AM CST 6:08 PM CST
Astronomical Twilight 5:50 AM CST 6:39 PM CST
Moon 10:32 AM CST (12/6) 9:36 PM CST (12/6)
Length of Visible Light 10h 42m
Length of Day
9h 44m
Waxing Crescent, 19% of the Moon is Illuminated
Dec 6
Waxing Crescent
Dec 9
First Quarter
Dec 17
Full
Dec 25
Last Quarter
Jan 1
New

Hourly Weather History & Observations

Time (CST) Temp. Windchill Dew Point Humidity Pressure Visibility Wind Dir Wind Speed Gust Speed Precip Events Conditions
12:53 AM 21.0 °F 10.6 °F 10.9 °F 65% 30.35 in 10.0 mi North 9.2 mph 20.7 mph N/A   Overcast
1:53 AM 21.0 °F 9.3 °F 10.9 °F 65% 30.36 in 4.0 mi North 11.5 mph 19.6 mph 0.00 in Snow Light Snow
2:04 AM 19.4 °F 7.2 °F 12.2 °F 74% 30.34 in 2.0 mi North 11.5 mph 19.6 mph 0.00 in Snow Light Snow
2:07 AM 19.4 °F 6.6 °F 12.2 °F 74% 30.34 in 1.8 mi North 12.7 mph 19.6 mph 0.00 in Snow Light Snow
2:53 AM 19.0 °F 6.1 °F 14.0 °F 81% 30.37 in 1.0 mi North 12.7 mph 18.4 mph 0.00 in Snow Light Snow
3:53 AM 18.0 °F 6.1 °F 15.1 °F 88% 30.36 in 1.2 mi North 10.4 mph 18.4 mph 0.00 in Snow Light Snow
4:53 AM 18.0 °F 4.8 °F 14.0 °F 84% 30.38 in 1.5 mi North 12.7 mph 20.7 mph 0.00 in Snow Light Snow
5:53 AM 18.0 °F 3.6 °F 12.9 °F 81% 30.38 in 1.2 mi North 15.0 mph 23.0 mph 0.00 in Snow Light Snow
6:48 AM 17.6 °F 6.4 °F 15.8 °F 93% 30.40 in 0.8 mi North 9.2 mph - 0.00 in Snow Light Snow
6:53 AM 18.0 °F 8.7 °F 15.1 °F 88% 30.42 in 0.8 mi North 6.9 mph - 0.00 in Snow Light Snow
7:05 AM 17.6 °F 3.7 °F 14.0 °F 86% 30.40 in 0.5 mi North 13.8 mph 18.4 mph 0.00 in Fog , Snow Snow
7:11 AM 17.6 °F 5.0 °F 14.0 °F 86% 30.38 in 0.8 mi North 11.5 mph 18.4 mph 0.00 in Snow Light Snow
7:30 AM 17.6 °F 6.4 °F 15.8 °F 93% 30.39 in 1.0 mi North 9.2 mph - 0.00 in Snow Light Snow
7:42 AM 17.6 °F 5.0 °F 14.0 °F 86% 30.39 in 1.0 mi North 11.5 mph - 0.00 in Snow Light Snow
7:53 AM 18.0 °F 4.8 °F 14.0 °F 84% 30.43 in 1.0 mi North 12.7 mph 17.3 mph 0.00 in Snow Light Snow
8:26 AM 17.6 °F 2.7 °F 12.2 °F 79% 30.42 in 3.0 mi North 16.1 mph 19.6 mph 0.00 in Snow Light Snow
8:50 AM 17.6 °F 3.2 °F 12.2 °F 79% 30.42 in 9.0 mi North 15.0 mph 18.4 mph 0.00 in   Overcast
8:53 AM 18.0 °F 4.8 °F 12.0 °F 78% 30.44 in 10.0 mi North 12.7 mph 18.4 mph 0.00 in   Overcast
9:53 AM 19.9 °F 6.7 °F 10.0 °F 65% 30.46 in 10.0 mi North 13.8 mph - N/A   Overcast
10:53 AM 21.0 °F 10.6 °F 9.0 °F 60% 30.51 in 10.0 mi North 9.2 mph - N/A   Overcast
11:53 AM 21.9 °F 8.7 °F 9.0 °F 58% 30.49 in 10.0 mi North 15.0 mph 20.7 mph N/A   Overcast
12:53 PM 23.0 °F 10.6 °F 8.1 °F 53% 30.49 in 10.0 mi NNE 13.8 mph 19.6 mph N/A   Overcast
1:53 PM 25.0 °F 12.2 °F 7.0 °F 46% 30.48 in 10.0 mi NNE 16.1 mph 21.9 mph N/A   Mostly Cloudy
2:53 PM 25.0 °F 13.6 °F 7.0 °F 46% 30.48 in 10.0 mi North 12.7 mph 23.0 mph N/A   Mostly Cloudy
3:53 PM 21.9 °F 11.0 °F 6.1 °F 51% 30.51 in 10.0 mi NNW 10.4 mph 17.3 mph N/A   Overcast
4:53 PM 19.9 °F 10.1 °F 5.0 °F 52% 30.54 in 10.0 mi North 8.1 mph 18.4 mph N/A   Overcast
5:53 PM 19.9 °F 7.9 °F 3.9 °F 50% 30.56 in 10.0 mi North 11.5 mph - N/A   Overcast
6:53 PM 18.0 °F 8.7 °F 3.0 °F 52% 30.58 in 10.0 mi North 6.9 mph - N/A   Clear
7:53 PM 16.0 °F 4.4 °F 1.9 °F 54% 30.60 in 10.0 mi North 9.2 mph - N/A   Clear
8:53 PM 15.1 °F 5.2 °F 1.9 °F 56% 30.63 in 10.0 mi North 6.9 mph - N/A   Clear
9:53 PM 14.0 °F 2.0 °F 1.9 °F 59% 30.65 in 10.0 mi North 9.2 mph - N/A   Clear
10:53 PM 12.9 °F 1.6 °F 1.9 °F 62% 30.65 in 10.0 mi North 8.1 mph - N/A   Clear
11:53 PM 14.0 °F -0.2 °F 1.9 °F 59% 30.66 in 10.0 mi NNE 12.7 mph - N/A   Clear